Location: Sevilla
(37.3933°N, 5.9839°W)
Time: 02:43:52
(UTC+02:00)

Vanguard 3 - Pass Details

Date: 04 July 2024
Orbit: 508 x 3230 km, 33.3° (Epoch: 24 July)

Event Time Altitude Azimuth Distance (km) Brightness Sun altitude
Rises 13:31:43 0° 280° (W) 5,595 11.3 71.0°
Reaches altitude 10° 13:36:42 10° 271° (W) 4,070 10.7 71.6°
Maximum altitude 13:44:28 26° 220° (SW) 2,203 9.8 72.6°
Drops below altitude 10° 13:49:36 10° 165° (SSE) 2,588 10.1 73.2°
Sets 13:52:02 0° 151° (SSE) 3,258 10.5 73.4°
